DECAYED

STARLINK-4669, 53748 (Decayed)

Orbit data source: Space-Track

STARLINK-4669, 53748 was a payload satellite owned by SpaceX/Seattle (US) in LEO that was launched on Mon, 05 Sep 2022 UTC via an FALCON 9 launch vehicle from the Air Force Eastern Test Range (AFETR). Payload-class satellites include a variety of spacecraft equipped with specific instruments for various scientific and technological missions. These include communications satellites like Starlink; space stations such as the ISS; scientific satellites like the Hubble; Earth observation satellites from companies like Planet Labs, Umbra, and HawkEye 360; GPS; miniature CubeSats for education and research; and military/defense satellites.

Not visible in the next 10 days
Identifier
53748, 2022-107BA
Orbit
Decayed
Country
Flag of USUS
Related business
Manufacturer
SpaceX/Seattle
Mission
Decayed Commercial Communications
Bus & Motor
STARLINK, Unknown motor
Mass
305 kg wet, ~290 kg dry
Launch date (UTC)
2022-09-05 (4 years ago)
Launch vehicle
FALCON 9
Launch site
Air Force Eastern Test Range (AFETR)
Object type
Payload
Rocket body
Debris
Shape & HBR
Box + 1 Pan, 10.1 m
Radar Cross Section
13.562 m², Large (>1 m²)

Expand to show TLE details & history
Last TLE update: 1 year ago

TLE from 1 year ago
0 STARLINK-4669
1 53748U 22107BA  25037.80554308  .08777777  12411-4  59394-3 0  9995
2 53748  53.1985 208.4296 0004790 305.4446 192.9351 16.40587481134504
Epoch: 2025-02-06T19:19Z
TLE epoch observation values (Epoch: 2025-02-06T19:19:58.922Z)
Latitude
32.24459°
Longitude
-66.72672°
Altitude
169.374 km
Speed
7.807 km/s
True Right ascension
00h 01m 46s
True Declination
32° 04' 32"
Sunlit
Object was in daylight at epoch
Visualization orbit readout
Latitude
Unknown
Longitude
Unknown
Altitude
Unknown
Speed
Unknown
Apparent Right ascension
Unknown
Apparent Declination
Unknown
Sunlit
N/A
Visualization observer readout
Local Sidereal Time
21:26:26
Azimuth
Unknown
Elevation
Unknown
Doppler factor
Unknown
Orbital elements
Apogee altitude
167.636 km
Perigee altitude
161.368 km
Semi-major axis
6,542.639 km
Eccentricity
0.00048
Inclination
53.1985°
RAAN
208.4296°
Arg. of periapsis
305.4446°
True anomaly
192.92282°
Mean anomaly
192.9351°
Eccentric anomaly
192.92896°
Mean motion
4.10123 °/min
Orbital period
87.78 mins
BSTAR
0.00059394
Loading maneuver chart data...
Computing Atmospheric mass density...
Loading historical data...
Loading historical data...
Loading historical data...
Loading historical data...
Loading historical data...
Loading historical data...
Loading historical data...

Documentation

Showing up to 5 results
|